Date String (YYYY-MM-DD hh:mm:ss) UTC,Instrument flags,absolute air pressure of the measurement (hPa),sample flow rate (lpm),inlet stack bypass flow (lpm),air temperature of the measurement (°C),ambient temperature measured by the external sensor (°C),aerosol sample conditioner tube jacket temperature (°C),OPC LED temperature (°C),internal box temperature (°C),relative humidity of the measurement (%),span deviation,mass concentration of particles derived from Lorenz-Mie calculation of OPC scattering (μg/m³),mass concentration of particles derived from Lorenz-Mie calculation of OPC scattering (μg/m³),mass concentration of particles derived from Lorenz-Mie calculation of OPC scattering (μg/m³)
DateTimeUTC,F1_M11,P_M11,Q1_M11,Q2_M11,T1_M11,T2_M11,T3_M11,T4_M11,T5_M11,U1_M11,ZSPAN_M11,X2_M11,X0_M11,X1_M11
2024-04-12 14:00:00,SystemResetWarning,0830.3,5.01,000.00,022.5,021.9,000.0,031.0,024.4,013.6,0000.0,0005.36,0014.65,0003.28
2024-04-12 14:01:00,SystemResetWarning,0830.2,5.00,000.00,022.5,021.9,000.0,031.0,024.4,013.5,0000.0,0005.33,0014.75,0003.26
2024-04-12 14:02:00,SystemResetWarning,0830.3,5.00,000.00,022.5,021.9,000.0,031.0,024.4,013.0,0000.0,0005.33,0015.56,0003.24
2024-04-12 14:03:00,SystemResetWarning,0830.3,5.00,000.00,022.6,021.9,000.0,031.0,024.4,013.0,0000.0,0005.43,0016.16,0003.23
2024-04-12 14:04:00,SystemResetWarning,0830.2,5.00,000.00,022.6,022.0,000.0,031.0,024.4,013.8,0000.0,0005.44,0016.24,0003.21
2024-04-12 14:05:00,SystemResetWarning,0830.2,5.00,000.00,022.6,022.0,000.0,031.0,024.4,013.5,0000.0,0005.51,0016.49,0003.20
2024-04-12 14:06:00,SystemResetWarning,0830.3,5.00,000.00,022.6,021.9,000.0,031.0,024.4,013.3,0000.0,0005.49,0016.37,0003.19
2024-04-12 14:07:00,SystemResetWarning,0830.4,5.00,000.00,022.6,021.9,000.0,031.0,024.4,014.7,0000.0,0005.43,0015.93,0003.18
2024-04-12 14:08:00,SystemResetWarning,0830.4,5.00,000.00,022.6,021.9,000.0,031.0,024.4,015.2,0000.0,0005.54,0015.88,0003.18
2024-04-12 14:09:00,SystemResetWarning,0830.4,5.00,000.00,022.6,021.9,000.0,031.0,024.4,015.3,0000.0,0005.64,0016.16,0003.19
2024-04-12 14:10:00,SystemResetWarning,0830.4,5.01,000.00,022.6,021.9,000.0,031.0,024.4,015.4,0000.0,0005.67,0016.55,0003.19
2024-04-12 14:11:00,SystemResetWarning,0830.4,5.01,000.00,022.6,021.9,000.0,031.0,024.4,015.4,0000.0,0005.71,0017.68,0003.19
2024-04-12 14:12:00,SystemResetWarning,0830.4,5.01,000.00,022.6,021.9,000.0,031.1,024.4,015.8,0000.0,0005.77,0019.56,0003.20
2024-04-12 14:13:00,SystemResetWarning,0830.4,4.98,000.00,022.6,021.9,000.0,031.1,024.4,016.0,0000.0,0005.84,0019.99,0003.21
2024-04-12 14:14:00,SystemResetWarning,0830.7,4.99,000.00,022.6,021.9,000.0,031.1,024.4,015.3,0000.0,0005.88,0022.02,0003.21
2024-04-12 14:15:00,SystemResetWarning,0830.5,5.01,000.00,022.6,021.9,000.0,031.1,024.5,016.1,0000.0,0005.96,0022.86,0003.24
2024-04-12 14:16:00,SystemResetWarning,0830.4,5.00,000.00,022.6,022.0,000.0,031.1,024.5,015.1,0000.0,0005.99,0024.45,0003.25
2024-04-12 14:17:00,SystemResetWarning,0830.5,5.00,000.00,022.6,022.0,000.0,031.1,024.5,014.2,0000.0,0006.03,0025.04,0003.26
2024-04-12 14:18:00,SystemResetWarning,0830.4,4.98,000.00,022.6,022.0,000.0,031.1,024.5,014.2,0000.0,0006.07,0025.90,0003.27
2024-04-12 14:19:00,SystemResetWarning,0830.4,5.00,000.00,022.6,022.0,000.0,031.1,024.5,014.1,0000.0,0006.08,0026.34,0003.28
2024-04-12 14:20:00,SystemResetWarning,0830.4,5.01,000.00,022.6,022.0,000.0,031.1,024.5,013.5,0000.0,0006.03,0026.22,0003.30
2024-04-12 14:21:00,SystemResetWarning,0830.4,5.00,000.00,022.6,022.0,000.0,031.1,024.5,013.9,0000.0,0006.01,0026.63,0003.31
2024-04-12 14:22:00,SystemResetWarning,0830.5,4.98,000.00,022.6,022.0,000.0,031.1,024.5,014.0,0000.0,0006.01,0024.84,0003.33
2024-04-12 14:23:00,SystemResetWarning,0830.4,5.01,000.00,022.6,021.9,000.0,031.1,024.5,014.0,0000.0,0005.91,0022.83,0003.34
2024-04-12 14:24:00,SystemResetWarning,0830.5,5.01,000.00,022.6,021.9,000.0,031.1,024.5,014.1,0000.0,0005.88,0022.28,0003.35
2024-04-12 14:25:00,SystemResetWarning,0830.6,4.99,000.00,022.6,021.9,000.0,031.1,024.5,013.7,0000.0,0005.85,0020.35,0003.35
2024-04-12 14:26:00,SystemResetWarning,0830.6,4.99,000.00,022.6,021.9,000.0,031.1,024.5,014.3,0000.0,0005.81,0019.51,0003.36
2024-04-12 14:27:00,SystemResetWarning,0830.5,4.99,000.00,022.6,021.9,000.0,031.1,024.5,014.2,0000.0,0005.73,0018.62,0003.36
2024-04-12 14:28:00,SystemResetWarning,0830.4,5.01,000.00,022.6,021.9,000.0,031.1,024.5,013.8,0000.0,0005.75,0018.30,0003.37
2024-04-12 14:29:00,SystemResetWarning,0830.5,5.02,000.00,022.6,021.9,000.0,031.1,024.5,014.8,0000.0,0005.75,0017.59,0003.37
2024-04-12 14:30:00,SystemResetWarning,0830.4,5.00,000.00,022.6,021.9,000.0,031.1,024.4,014.8,0000.0,0005.69,0017.26,0003.37
2024-04-12 14:31:00,SystemResetWarning,0830.6,5.00,000.00,022.6,021.9,000.0,031.1,024.4,015.6,0000.0,0005.61,0017.76,0003.35
2024-04-12 14:32:00,SystemResetWarning,0830.5,5.00,000.00,022.6,021.9,000.0,031.1,024.4,016.4,0000.0,0005.57,0017.06,0003.33
2024-04-12 14:33:00,SystemResetWarning,0830.4,5.00,000.00,022.6,021.9,000.0,031.1,024.4,017.0,0000.0,0005.53,0017.01,0003.32
2024-04-12 14:34:00,SystemResetWarning,0830.4,5.00,000.00,022.6,021.9,000.0,031.1,024.5,016.6,0000.0,0005.59,0017.85,0003.33
2024-04-12 14:35:00,SystemResetWarning,0830.4,5.00,000.00,022.6,021.9,000.0,031.1,024.5,017.1,0000.0,0005.60,0017.72,0003.32
2024-04-12 14:36:00,SystemResetWarning,0830.4,4.99,000.00,022.7,022.0,000.0,031.1,024.5,016.9,0000.0,0005.57,0016.97,0003.34
2024-04-12 14:37:00,SystemResetWarning,0830.4,5.00,000.00,022.7,022.0,000.0,031.1,024.5,016.9,0000.0,0005.56,0017.26,0003.35
2024-04-12 14:38:00,SystemResetWarning,0830.4,4.99,000.00,022.7,022.0,000.0,031.1,024.5,017.3,0000.0,0005.61,0017.52,0003.37
2024-04-12 14:39:00,SystemResetWarning,0830.4,5.00,000.00,022.7,022.0,000.0,031.1,024.5,017.5,0000.0,0005.63,0017.00,0003.40
2024-04-12 14:40:00,SystemResetWarning,0830.5,5.00,000.00,022.7,022.0,000.0,031.1,024.5,017.5,0000.0,0005.74,0017.54,0003.46
2024-04-12 14:41:00,SystemResetWarning,0830.4,5.00,000.00,022.7,022.0,000.0,031.1,024.5,017.3,0000.0,0005.86,0018.18,0003.51
2024-04-12 14:42:00,SystemResetWarning,0830.4,5.00,000.00,022.7,022.0,000.0,031.1,024.5,017.6,0000.0,0005.98,0018.02,0003.58
2024-04-12 14:43:00,SystemResetWarning,0830.4,5.00,000.00,022.7,022.0,000.0,031.1,024.5,017.6,0000.0,0006.05,0018.74,0003.65
2024-04-12 14:44:00,SystemResetWarning,0830.4,5.00,000.00,022.7,022.0,000.0,031.1,024.5,017.5,0000.0,0006.13,0018.65,0003.71
2024-04-12 14:45:00,SystemResetWarning,0830.4,4.99,000.00,022.7,022.0,000.0,031.1,024.5,017.5,0000.0,0006.24,0018.36,0003.76
2024-04-12 14:46:00,SystemResetWarning,0830.4,5.00,000.00,022.7,022.0,000.0,031.1,024.5,017.6,0000.0,0006.34,0018.68,0003.82
2024-04-12 14:47:00,SystemResetWarning,0830.4,5.00,000.00,022.7,022.0,000.0,031.1,024.5,017.5,0000.0,0006.40,0018.76,0003.85
2024-04-12 14:48:00,SystemResetWarning,0830.4,5.00,000.00,022.7,022.0,000.0,031.1,024.5,017.6,0000.0,0006.48,0019.64,0003.88
2024-04-12 14:49:00,SystemResetWarning,0830.4,5.00,000.00,022.7,022.0,000.0,031.1,024.5,017.4,0000.0,0006.49,0020.45,0003.91
2024-04-12 14:50:00,SystemResetWarning,0830.5,5.01,000.00,022.7,022.0,000.0,031.1,024.5,017.3,0000.0,0006.47,0020.21,0003.92
2024-04-12 14:51:00,SystemResetWarning,0830.5,5.01,000.00,022.7,022.0,000.0,031.1,024.6,017.2,0000.0,0006.44,0019.87,0003.90
2024-04-12 14:52:00,SystemResetWarning,0830.4,5.00,000.00,022.7,022.1,000.0,031.1,024.6,016.7,0000.0,0006.37,0019.00,0003.89
2024-04-12 14:53:00,SystemResetWarning,0830.4,5.00,000.00,022.7,022.1,000.0,031.1,024.6,016.7,0000.0,0006.27,0019.02,0003.86
2024-04-12 14:54:00,SystemResetWarning,0830.4,5.00,000.00,022.7,022.1,000.0,031.1,024.6,017.1,0000.0,0006.32,0019.03,0003.85
2024-04-12 14:55:00,SystemResetWarning,0830.4,5.00,000.00,022.7,022.1,000.0,031.2,024.6,017.1,0000.0,0006.32,0019.45,0003.86
2024-04-12 14:56:00,SystemResetWarning,0830.4,5.00,000.00,022.7,022.1,000.0,031.2,024.6,017.1,0000.0,0006.34,0019.17,0003.90
2024-04-12 14:57:00,SystemResetWarning,0830.4,4.99,000.00,022.8,022.1,000.0,031.2,024.6,016.9,0000.0,0006.30,0019.00,0003.91
2024-04-12 14:58:00,SystemResetWarning,0830.4,5.00,000.00,022.8,022.1,000.0,031.2,024.6,016.9,0000.0,0006.36,0020.18,0003.96
2024-04-12 14:59:00,SystemResetWarning,0830.4,5.00,000.00,022.8,022.1,000.0,031.2,024.6,016.8,0000.0,0006.42,0019.50,0003.99
